GFSCGP_250_spd_219.txt.gz
Wind_Speed
47 42 39 38 33 30 31 36 43 54 32 46 56 49 64 47 34 43 42 43 38 35 31 27 23 21 22 25 18 15 10 8 3 9 8 11 17 21 23 25 27 28 30 31
48 47 48 42 37 33 33 33 41 48 58 31 51 62 60 60 52 46 47 47 41 40 32 31 25 22 22 26 19 15 10 8 3 7 7 9 12 18 18 19 21 24 28 31
56 60 53 47 42 39 39 36 35 42 49 58 52 64 61 58 56 53 50 49 49 45 38 35 29 25 27 26 21 16 10 7 7 5 5 10 10 13 15 16 18 21 24 27
63 64 58 53 48 45 42 41 38 36 42 51 51 61 63 61 56 52 54 53 50 50 42 40 36 29 31 28 23 17 10 8 10 7 6 10 9 10 13 14 14 17 19 24
65 66 62 58 55 52 49 44 40 37 36 38 48 56 64 66 64 63 63 55 53 50 48 43 40 36 33 31 27 19 14 11 12 10 9 11 11 9 10 10 11 13 15 20
71 70 69 63 63 58 56 49 43 42 40 36 43 52 57 65 70 70 66 59 55 53 50 43 41 38 38 35 29 24 21 16 15 15 12 13 13 11 8 8 7 10 11 16
76 71 71 70 67 63 59 55 47 45 41 35 39 43 57 63 63 63 64 63 60 58 53 49 45 44 43 37 30 26 26 19 17 19 17 15 16 14 10 6 5 7 9 12
81 79 72 71 69 66 64 60 52 49 45 44 41 37 48 57 60 64 63 64 63 63 57 55 49 49 47 38 30 27 25 21 18 23 22 20 18 17 14 10 5 3 6 8
83 78 82 81 75 74 67 64 57 58 52 51 44 42 43 48 63 63 60 63 62 62 60 58 54 49 44 41 32 32 30 26 23 25 25 23 21 19 17 14 9 3 2 4
81 82 85 79 82 78 76 66 67 61 55 49 47 44 40 43 56 61 61 59 57 56 58 57 56 52 43 40 36 34 33 31 27 28 29 28 25 22 20 18 14 7 3 1
88 82 80 86 83 77 73 73 68 64 59 55 52 47 47 43 45 57 57 57 57 58 59 57 52 47 44 41 38 36 36 36 34 34 34 33 31 29 25 22 19 13 8 5
91 85 89 85 78 84 82 78 72 68 60 57 55 54 54 49 41 50 54 56 55 55 55 53 49 45 45 43 43 41 38 40 40 37 38 38 36 32 29 26 23 18 14 10
101 92 88 86 86 89 87 80 75 70 70 65 60 56 61 49 41 42 50 54 51 53 54 52 49 46 44 44 43 44 42 43 43 39 42 42 41 37 33 29 27 24 19 15
104 99 97 92 83 84 83 82 79 74 71 66 60 65 66 55 50 43 46 46 51 54 54 51 49 45 44 43 43 44 45 46 46 43 43 46 46 43 38 32 29 28 25 20
107 107 104 99 97 93 88 83 84 81 73 71 68 70 71 59 54 46 39 49 52 49 45 47 46 43 42 43 43 42 42 47 48 46 47 49 50 47 41 37 34 31 29 25
109 109 104 108 92 91 86 84 86 85 81 76 76 72 76 70 57 43 44 46 49 47 47 44 47 42 42 44 41 40 42 47 48 48 50 50 49 49 46 42 39 36 33 30
104 108 104 103 101 98 95 89 88 87 86 83 83 83 87 73 51 44 49 48 48 53 50 53 52 42 43 42 41 43 44 43 45 50 52 50 50 50 48 47 42 40 39 36
102 100 102 103 106 101 97 99 95 97 96 90 86 78 71 62 58 60 53 50 50 51 51 50 48 44 44 42 41 41 43 47 48 50 53 51 52 53 51 48 47 45 43 40
103 100 99 103 104 102 102 102 100 94 93 93 86 81 76 75 77 69 52 54 51 50 52 51 49 47 45 41 42 41 43 48 50 52 54 54 54 55 54 52 51 50 47 44
102 103 98 96 101 100 110 106 101 97 96 95 91 86 83 82 83 68 56 56 53 51 54 55 54 51 50 47 44 43 43 45 50 54 55 52 50 51 53 53 54 54 50 48
98 104 100 98 97 104 109 104 103 101 97 98 96 91 88 87 85 74 66 62 57 54 56 56 54 53 54 52 49 44 42 46 47 45 47 47 46 48 50 51 51 53 52 50
91 102 103 101 99 107 106 104 105 100 100 100 100 98 92 91 89 81 72 68 62 59 57 56 56 56 57 55 55 48 46 44 43 45 42 43 44 46 46 46 48 48 49 48
89 98 105 105 107 105 99 99 101 104 106 104 104 102 99 95 92 88 79 74 69 63 60 58 57 57 56 56 56 52 50 47 46 48 46 42 42 43 43 45 47 47 47 47
84 87 101 106 105 100 92 95 101 106 108 106 105 105 103 98 96 93 86 80 76 69 64 61 59 58 57 56 58 60 54 51 54 51 51 47 45 44 43 46 46 47 46 47
77 83 92 100 105 101 97 91 100 107 109 109 107 108 106 103 100 98 93 85 81 76 70 66 63 59 58 59 59 65 59 57 59 57 50 49 49 48 48 48 49 47 47 48
75 81 87 95 97 100 98 93 95 102 106 108 109 108 108 106 103 101 98 92 86 82 77 72 67 63 57 57 62 61 65 63 61 60 58 54 51 48 48 47 45 44 44 45

GFSCGP_250_spd_225.txt.gz
Wind_Speed
47 42 38 42 42 40 39 36 40 44 43 45 43 34 33 37 36 36 31 31 30 19 20 29 24 18 21 20 19 20 21 24 9 3 6 7 14 18 21 22 25 28 28 30
45 39 48 46 45 38 36 33 37 38 45 44 41 53 33 36 29 29 34 32 32 25 20 30 32 23 20 18 20 19 19 23 13 4 1 2 6 11 16 17 20 23 26 27
50 56 53 49 46 40 37 35 35 34 45 55 50 54 41 42 29 22 29 38 35 27 24 32 23 24 24 21 24 21 20 20 17 8 4 3 1 4 8 12 15 18 22 24
58 62 54 51 47 44 41 40 41 36 44 54 54 53 58 36 38 39 32 22 32 32 31 35 30 26 28 28 28 21 20 20 19 12 7 7 5 2 2 5 9 13 17 20
65 67 60 55 52 48 45 46 45 39 39 54 55 55 51 48 44 49 44 36 37 36 37 40 40 39 35 32 32 25 22 19 20 13 13 9 10 7 4 0 4 7 11 15
74 72 64 60 60 55 56 52 50 43 38 40 53 49 44 52 45 50 45 52 46 39 42 42 37 37 35 37 36 28 25 23 20 17 15 15 13 12 9 6 2 2 7 10
78 75 70 67 65 63 62 58 53 47 41 38 47 61 55 52 49 51 44 53 46 49 48 48 49 44 39 37 35 30 27 24 22 20 17 18 18 16 13 10 7 4 1 5
81 79 74 70 69 67 67 64 58 52 49 46 48 45 61 65 57 55 59 51 62 56 55 53 51 47 42 50 37 32 27 27 24 19 18 21 21 20 18 14 11 9 6 3
84 78 80 81 77 77 70 70 63 61 56 55 53 53 53 53 67 73 58 41 56 63 61 63 55 55 53 51 46 39 33 33 29 24 19 22 23 24 23 19 15 13 11 8
87 87 87 82 82 80 78 71 70 66 62 60 58 58 51 46 51 50 54 63 66 53 54 60 62 55 50 52 53 53 42 40 34 29 23 24 25 26 26 24 21 18 16 13
95 93 88 89 88 80 78 75 73 68 66 64 62 62 61 56 54 55 56 54 48 44 52 59 59 64 55 59 61 55 50 47 41 34 29 28 29 28 30 29 28 24 21 18
98 94 92 89 86 83 82 78 77 73 69 70 67 67 68 64 62 62 61 53 49 44 40 48 57 63 65 57 53 52 48 47 45 37 31 31 34 32 32 33 33 30 27 23
98 96 93 94 93 91 86 81 80 78 77 71 69 69 69 69 68 64 67 51 49 40 43 39 42 60 65 65 65 62 50 48 46 35 33 35 37 37 35 36 36 34 31 28
101 99 96 91 90 86 86 84 82 81 79 73 71 76 74 76 72 69 73 61 52 43 49 46 41 43 53 54 57 54 46 46 42 36 36 39 40 39 39 37 39 38 35 32
100 98 95 88 85 87 89 88 87 89 83 78 77 80 83 81 76 80 69 65 56 49 49 51 46 40 42 48 52 55 49 44 39 38 41 43 42 42 41 42 42 40 40 38
101 100 98 93 90 95 97 93 91 92 89 82 85 86 88 83 87 78 70 68 61 53 52 54 51 41 37 44 51 53 49 45 42 44 45 44 43 42 44 44 45 43 43 42
104 101 100 95 99 97 98 96 96 93 92 92 93 93 86 93 87 74 72 66 60 55 51 53 48 44 33 40 48 50 48 45 48 49 47 46 45 46 48 49 48 48 46 45
103 105 101 95 103 105 100 102 100 99 97 94 100 95 89 92 87 81 78 70 52 58 52 60 50 46 41 39 47 52 50 49 50 51 50 48 48 50 50 50 51 51 49 45
101 100 103 100 107 108 109 108 103 100 94 95 91 94 92 83 81 80 83 76 54 46 56 61 54 48 46 44 45 52 52 51 51 53 53 52 51 51 51 51 55 55 52 48
90 97 99 101 110 114 113 110 107 103 98 97 98 98 95 84 85 74 80 82 66 46 57 64 62 54 51 49 47 48 49 52 53 54 54 53 50 50 51 54 55 57 55 52
81 89 96 101 109 113 113 110 110 109 103 102 100 98 99 93 88 86 80 81 70 69 68 73 65 59 54 52 49 48 50 53 55 54 49 50 50 50 49 49 48 46 45 46
70 77 90 103 111 114 114 114 113 114 111 107 102 100 99 96 92 88 83 81 79 72 72 77 69 62 59 55 53 52 56 52 53 52 48 49 51 50 51 51 50 49 48 46
65 73 81 96 110 114 115 119 114 114 113 111 107 102 101 102 99 97 93 86 82 83 85 85 76 69 65 60 57 57 57 55 49 48 46 43 45 46 48 49 51 53 49 45
64 69 76 85 97 108 114 117 120 117 117 108 105 107 107 109 107 101 95 91 87 82 85 87 82 73 70 66 63 60 60 59 56 53 52 48 47 44 48 46 48 46 48 47
54 66 66 77 85 96 105 110 112 112 116 117 110 109 112 112 113 107 98 93 88 84 84 88 87 77 73 72 69 65 63 63 60 56 56 55 53 52 48 46 46 45 45 44
55 61 64 73 81 85 94 104 111 111 112 110 113 113 113 114 116 111 101 95 91 88 86 87 90 85 77 76 73 71 67 66 65 62 59 61 60 58 54 49 44 44 44 41

GFSCGP_250_spd_228.txt.gz
Wind_Speed
55 51 49 50 51 49 50 49 47 47 47 44 43 44 43 46 49 50 48 32 23 19 16 15 15 18 18 15 15 18 19 23 21 11 6 8 13 16 20 22 24 24 22 22
54 46 55 54 51 47 46 42 42 42 44 45 45 46 45 50 50 50 45 30 27 19 20 17 12 21 21 17 11 15 20 20 20 13 10 3 5 9 13 18 19 21 22 22
52 56 57 52 50 46 45 40 42 41 44 45 46 48 49 49 51 46 43 31 26 23 23 26 20 25 25 13 15 16 15 18 19 18 11 7 4 3 5 11 14 15 17 18
57 61 57 54 51 49 46 46 44 41 43 42 44 49 51 53 51 44 40 32 22 20 25 28 24 28 20 13 16 25 16 18 15 17 13 11 6 5 1 4 8 9 11 14
61 66 62 58 55 52 50 50 46 46 42 39 43 45 49 54 52 45 36 25 24 19 29 27 29 37 30 24 21 25 16 15 17 13 17 11 12 9 5 3 0 3 6 8
68 71 65 61 62 55 60 54 50 48 42 38 40 44 52 54 60 55 49 40 34 25 32 34 30 34 33 30 23 23 23 18 16 14 15 16 13 12 10 7 6 4 2 4
76 74 70 68 65 61 64 58 53 51 43 45 40 38 54 60 55 49 51 49 41 41 33 40 36 35 36 35 26 26 26 20 16 16 11 15 16 17 15 12 10 6 4 4
80 79 75 73 70 67 71 66 58 54 47 49 44 38 48 55 58 55 54 47 45 47 38 38 39 41 41 44 39 31 32 31 22 18 14 12 17 18 19 17 14 11 8 7
83 83 82 82 78 78 76 71 64 61 55 55 50 45 43 49 49 55 52 46 47 45 49 40 47 51 56 49 44 35 36 34 26 20 20 17 16 21 21 21 19 16 14 11
89 90 88 84 84 80 77 76 73 65 62 60 55 50 48 45 58 56 53 52 53 49 47 47 47 55 63 50 46 55 43 40 36 26 23 26 21 22 25 24 23 22 19 17
94 91 90 91 84 82 80 79 75 70 66 64 61 55 53 53 53 64 65 58 54 54 51 54 52 51 47 52 46 45 44 41 45 41 32 29 33 25 28 27 27 27 25 22
99 96 96 90 86 87 85 84 81 77 72 68 64 62 64 62 59 54 60 66 65 62 63 65 65 64 63 59 60 54 45 43 45 48 46 38 36 31 31 32 30 30 30 28
104 99 96 93 94 91 88 83 83 81 78 72 73 71 71 69 65 56 56 53 39 33 59 49 47 45 40 37 40 42 47 50 49 39 33 34 36 36 34 36 34 33 33 32
106 103 99 94 94 94 91 91 89 85 80 77 74 76 76 73 71 64 64 60 60 61 49 53 55 51 41 36 33 34 40 50 58 56 48 40 39 38 36 36 39 36 35 35
99 103 101 97 96 98 94 94 91 88 83 81 82 82 84 80 73 70 69 64 64 65 62 57 55 53 46 39 36 39 44 46 49 50 48 45 43 41 38 40 42 41 39 38
97 95 98 97 97 98 96 96 94 95 89 87 90 88 89 81 78 71 71 70 70 70 66 62 57 56 51 43 39 40 39 46 50 45 46 46 42 44 43 43 44 43 44 43
103 97 97 96 98 98 100 97 99 97 92 92 91 89 88 84 80 73 72 74 74 72 69 62 57 55 53 50 46 43 41 42 46 49 47 49 45 46 45 44 44 46 46 46
107 103 99 94 97 102 99 101 103 98 93 94 95 90 84 84 82 77 76 79 79 74 72 64 57 54 55 56 51 45 45 41 47 48 48 49 48 46 45 44 46 48 48 47
106 106 103 98 99 100 103 104 102 99 95 98 96 91 88 89 84 82 80 80 80 77 74 68 58 56 59 59 55 49 48 45 44 45 46 49 49 49 46 48 50 50 49 49
101 103 106 103 102 104 103 105 104 102 101 98 93 92 86 92 90 86 84 85 86 84 78 72 65 59 56 66 61 56 54 48 48 48 48 49 50 52 50 51 51 53 51 52
91 100 105 104 107 109 108 104 104 106 103 102 97 93 93 73 88 89 86 88 90 91 83 81 72 65 61 65 68 59 58 53 49 52 51 50 53 55 51 52 53 54 55 55
79 85 99 106 109 112 112 109 104 103 103 105 101 99 93 94 93 91 94 82 87 86 88 84 80 66 60 66 70 66 62 58 53 51 52 53 53 53 55 52 54 55 55 56
66 70 82 93 104 109 112 110 107 102 103 106 105 101 99 99 97 97 98 99 94 88 86 83 84 77 73 69 70 65 65 63 59 54 52 51 53 53 52 54 56 53 54 53
57 60 65 73 87 101 108 108 107 108 107 108 107 106 105 105 105 102 101 97 92 86 83 81 76 76 83 82 79 71 65 65 64 58 55 52 51 50 51 56 55 52 49 50
50 55 58 64 73 80 96 103 107 110 111 113 114 107 109 110 109 107 105 102 98 94 90 85 84 85 88 91 86 76 74 71 68 64 59 55 54 52 49 50 49 45 45 45
51 53 55 60 67 77 87 95 101 107 112 114 112 114 116 115 114 114 112 110 107 103 100 98 94 91 92 90 84 83 79 75 73 70 65 62 60 54 51 49 51 48 49 45

GFSCGP_250_spd_234.txt.gz
Wind_Speed
63 62 60 63 62 60 61 61 61 56 51 49 47 45 42 38 36 36 36 39 36 31 26 27 11 8 7 10 14 10 15 18 17 15 14 12 14 17 19 21 24 24 24 26
66 61 65 65 63 61 58 60 61 58 54 51 47 46 45 45 42 41 40 39 36 34 28 29 21 12 7 10 9 6 13 16 16 12 14 10 9 10 14 18 20 21 21 22
69 68 72 69 66 62 57 59 61 59 55 53 50 48 45 48 48 42 38 40 38 34 30 33 19 17 12 12 11 3 9 14 17 11 12 12 9 7 8 11 15 16 17 19
75 73 74 71 66 63 58 60 59 58 53 50 49 46 44 45 46 44 41 42 41 35 30 31 26 18 18 15 13 7 4 11 18 12 11 11 9 6 5 6 9 11 12 15
76 76 77 75 70 68 64 65 62 58 53 49 48 47 45 42 42 42 42 40 41 42 36 41 39 25 24 19 18 15 6 7 14 17 8 11 10 7 4 5 3 7 7 10
81 80 79 77 77 72 70 66 61 58 55 50 49 47 44 40 39 38 39 38 40 42 39 43 39 34 26 25 24 18 11 10 10 17 10 9 10 9 6 5 4 4 5 6
83 83 81 80 79 74 71 66 62 59 55 52 49 47 45 40 39 37 37 38 39 41 42 38 32 30 29 30 27 26 22 23 21 21 23 13 7 7 7 7 6 6 6 5
84 82 81 80 78 76 76 71 64 59 55 58 50 48 46 39 34 35 36 36 36 37 34 31 29 31 27 29 29 29 30 26 21 25 26 12 15 13 7 6 8 10 10 10
81 78 81 79 79 80 75 71 65 62 59 58 50 54 46 41 39 37 36 37 33 32 38 28 37 34 23 34 29 28 26 22 26 25 25 17 21 14 13 12 9 9 14 13
85 81 82 83 83 83 76 73 70 64 59 56 52 55 48 46 42 39 39 37 33 31 35 41 38 35 31 34 34 32 33 31 29 27 22 20 17 19 18 17 12 11 13 17
91 87 86 83 81 81 79 74 70 65 61 59 57 56 54 49 46 42 42 39 38 32 35 48 45 40 33 34 34 35 33 35 35 29 25 28 27 31 24 23 22 15 20 21
99 94 90 88 88 87 83 77 74 69 64 64 60 58 58 55 50 46 44 43 40 40 36 41 42 45 49 45 39 43 41 39 37 36 35 32 33 37 29 25 28 27 25 22
105 102 98 96 93 90 86 82 79 72 68 63 62 61 61 59 55 51 47 46 45 42 39 37 50 50 48 46 39 45 43 40 33 38 33 35 41 35 27 26 26 24 22 18
111 106 103 100 97 99 95 90 86 81 72 67 62 64 64 62 59 55 53 52 49 44 43 39 41 45 50 47 41 40 45 47 39 37 38 41 36 32 30 32 30 29 26 28
115 112 109 104 104 104 100 97 93 87 80 72 70 68 69 65 64 61 59 58 54 51 48 45 42 44 46 51 47 45 45 48 49 43 41 41 35 33 35 38 35 34 34 36
121 119 114 110 110 108 105 102 100 95 87 79 75 72 74 70 68 66 64 62 59 55 54 50 48 46 53 52 57 57 52 51 45 43 38 36 38 39 37 43 41 39 41 44
116 120 120 116 114 113 110 107 104 99 94 87 82 78 77 76 72 69 67 66 64 63 62 55 53 53 50 58 64 63 58 54 52 41 35 33 42 42 46 47 46 49 48 46
117 114 114 117 121 118 111 109 106 103 99 94 87 84 81 78 76 73 70 69 69 67 69 64 58 58 57 56 56 57 55 49 48 41 39 41 42 44 47 51 50 50 49 51
117 116 113 112 112 113 117 114 111 108 103 98 94 89 85 81 80 75 70 70 72 72 72 71 66 65 63 61 61 56 54 52 53 53 44 46 49 50 50 49 54 53 49 48
113 115 115 113 111 108 107 111 115 112 109 105 99 93 90 86 82 79 76 77 73 72 72 74 73 71 69 68 69 63 62 61 58 60 58 59 60 61 59 57 55 55 55 53
103 110 113 115 113 108 105 105 107 109 108 107 104 99 95 91 86 85 83 82 79 78 75 71 72 71 74 74 68 67 73 71 70 73 72 67 69 65 62 60 60 53 48 48
92 99 107 110 112 110 106 104 104 101 102 104 105 102 101 98 94 93 89 88 88 85 85 88 82 81 82 81 82 81 79 79 80 78 77 73 68 59 61 61 56 57 54 50
76 87 94 102 105 107 108 106 104 102 97 98 99 99 98 98 99 97 96 93 92 91 91 93 91 91 89 88 87 88 86 85 85 85 82 80 77 75 73 69 67 66 64 61
66 70 79 89 96 102 103 105 108 105 104 102 101 98 97 96 97 97 99 97 96 94 93 93 93 94 95 95 94 93 91 89 89 89 88 85 84 82 82 79 74 71 67 65
58 63 65 75 87 95 100 100 103 108 106 109 104 100 98 97 96 96 99 103 101 99 95 94 94 93 95 97 98 98 96 94 94 93 91 88 87 83 83 82 79 73 69 66
51 56 62 64 73 88 97 100 103 106 109 112 108 106 102 98 96 97 97 101 103 98 97 95 86 99 96 98 98 99 101 99 97 95 92 91 91 87 86 86 81 74 71 71